• Currently

    Reported at Alpena, Alpena County Regional Airport, MI
    10:54 AM EST SUN SEP 24 2017
  • 86°F30°C
  • Clear
    Clear
  • Feels Like:88°F31°CDew Point:66°F19°CHumidity:52% Winds:SSW 3 mph 5 kph
    Pressure:30.12 in1020 hPaVisibility:10.00 miles16090.00 meters
Time Weather Temp Dew Point
Humidity Winds Visibility Pressure Precipitation
1 hr 24 hr
Sunday, September 24
13:16 13:16 Sunny Sunny 88°F31°C 56°F14°C 34% S 8 mphS 13 kph 10.0 miles16.1 km 30.15 in1021 hPa -- --
12:56 12:56 Sunny Sunny 87°F31°C 57°F14°C 36% SW 7 mphSW 11 kph 10.0 miles16.1 km 30.15 in1021 hPa -- --
12:35 12:35 Sunny Sunny 87°F30°C 60°F16°C 40% S 6 mphS 9 kph 10.0 miles16.1 km 30.15 in1021 hPa -- --
12:16 12:16 Sunny Sunny 86°F30°C 62°F16°C 44% SW 5 mphSW 7 kph 10.0 miles16.1 km 30.15 in1021 hPa -- --
11:56 11:56 Sunny Sunny 84°F29°C 62°F17°C 48% SSW 5 mphSSW 7 kph 10.0 miles16.1 km 30.15 in1021 hPa -- --
11:35 11:35 Sunny Sunny 83°F28°C 63°F17°C 51% SW 5 mphSW 7 kph 10.0 miles16.1 km 30.15 in1021 hPa -- --
11:16 11:16 Sunny Sunny 81°F27°C 63°F17°C 55% CalmCalm 10.0 miles16.1 km 30.15 in1021 hPa -- --
10:56 10:56 Sunny Sunny 80°F27°C 62°F17°C 55% WSW 5 mphWSW 7 kph 10.0 miles16.1 km 30.15 in1021 hPa -- --
10:35 10:35 Sunny Sunny 78°F25°C 63°F17°C 61% CalmCalm 10.0 miles16.1 km 30.15 in1021 hPa -- --
10:16 10:16 Sunny Sunny 76°F24°C 62°F17°C 63% SW 3 mphSW 6 kph 10.0 miles16.1 km 30.15 in1021 hPa -- --
09:56 09:56 Sunny Sunny 73°F23°C 62°F17°C 69% CalmCalm 10.0 miles16.1 km 30.15 in1021 hPa -- --
09:35 09:35 Sunny Sunny 69°F21°C 61°F16°C 76% CalmCalm 10.0 miles16.1 km 30.15 in1021 hPa -- --
09:16 09:16 Sunny Sunny 66°F19°C 60°F16°C 81% CalmCalm 10.0 miles16.1 km 30.15 in1021 hPa -- --
08:56 08:56 Sunny Sunny 63°F17°C 58°F15°C 85% CalmCalm 10.0 miles16.1 km 30.15 in1021 hPa -- --
08:35 08:35 Sunny Sunny 59°F15°C 56°F14°C 91% CalmCalm 7.0 miles11.3 km 30.15 in1021 hPa -- --
08:16 08:16 Sunny Sunny 57°F14°C 54°F12°C 92% CalmCalm 7.0 miles11.3 km 30.15 in1021 hPa -- --
07:56 07:56 Sunny Sunny 57°F14°C 53°F12°C 87% CalmCalm 7.0 miles11.3 km 30.15 in1021 hPa -- --
07:35 07:35 Sunny With Mist And Fog Sunny With Mist And Fog 55°F13°C 52°F11°C 91% CalmCalm 5.0 miles8.0 km 30.15 in1021 hPa -- --
07:16 07:16 Clear Clear 55°F13°C 53°F12°C 94% CalmCalm 7.0 miles11.3 km 30.15 in1021 hPa -- --
06:56 06:56 Clear Clear 55°F13°C 52°F11°C 91% CalmCalm 7.0 miles11.3 km 30.15 in1021 hPa -- --
06:35 06:35 Clear With Mist And Fog Clear With Mist And Fog 56°F13°C 53°F12°C 91% CalmCalm 5.0 miles8.0 km 30.15 in1021 hPa -- --
06:16 06:16 Clear With Mist And Fog Clear With Mist And Fog 56°F13°C 54°F12°C 92% CalmCalm 2.0 miles3.2 km 30.15 in1021 hPa -- --
05:56 05:56 Clear Clear 56°F14°C 54°F12°C 92% CalmCalm 7.0 miles11.3 km 30.15 in1021 hPa -- --
05:35 05:35 Clear With Mist And Fog Clear With Mist And Fog 57°F14°C 54°F12°C 91% CalmCalm 5.0 miles8.0 km 30.15 in1021 hPa -- --
05:16 05:16 Clear With Mist And Fog Clear With Mist And Fog 58°F14°C 55°F13°C 91% CalmCalm 2.0 miles3.2 km 30.15 in1021 hPa -- --
04:56 04:56 Clear With Mist And Fog Clear With Mist And Fog 57°F14°C 55°F13°C 92% CalmCalm 5.0 miles8.0 km 30.15 in1021 hPa -- --
04:35 04:35 Mostly Cloudy With Fog Mostly Cloudy With Fog 59°F15°C 56°F14°C 91% CalmCalm 0.2 miles0.4 km 30.15 in1021 hPa -- --
04:16 04:16 Clear With Mist And Fog Clear With Mist And Fog 61°F16°C 57°F14°C 87% CalmCalm 4.0 miles6.4 km 30.15 in1021 hPa -- --
03:56 03:56 Clear With Mist And Fog Clear With Mist And Fog 60°F16°C 57°F14°C 90% CalmCalm 5.0 miles8.0 km 30.15 in1021 hPa -- --
03:35 03:35 Mostly Cloudy With Mist And Fog Mostly Cloudy With Mist And Fog 60°F16°C 57°F14°C 89% CalmCalm 1.2 miles2.0 km 30.15 in1021 hPa -- --
03:16 03:16 Mostly Cloudy With Mist And Fog Mostly Cloudy With Mist And Fog 60°F16°C 57°F14°C 90% CalmCalm 1.0 miles1.6 km 30.15 in1021 hPa -- --
02:56 02:56 Mostly Cloudy With Fog Mostly Cloudy With Fog 60°F16°C 59°F15°C 94% CalmCalm 0.2 miles0.4 km 30.15 in1021 hPa -- --
02:35 02:35 Clear With Mist And Fog Clear With Mist And Fog 61°F16°C 58°F15°C 91% CalmCalm 4.0 miles6.4 km 30.15 in1021 hPa -- --
02:16 02:16 Mostly Cloudy With Fog Mostly Cloudy With Fog 62°F17°C 60°F15°C 92% CalmCalm 0.2 miles0.4 km 30.15 in1021 hPa -- --
01:56 01:56 Clear Clear 60°F16°C 58°F15°C 93% CalmCalm 7.0 miles11.3 km 30.15 in1021 hPa -- --
01:35 01:35 Clear With Mist And Fog Clear With Mist And Fog 62°F16°C 60°F15°C 93% CalmCalm 5.0 miles8.0 km 30.12 in1020 hPa -- --
01:16 01:16 Clear Clear 64°F18°C 61°F16°C 90% CalmCalm 10.0 miles16.1 km 30.12 in1020 hPa -- --
00:56 00:56 Clear Clear 63°F17°C 61°F16°C 91% CalmCalm 7.0 miles11.3 km 30.12 in1020 hPa -- --
00:35 00:35 Clear With Mist And Fog Clear With Mist And Fog 63°F17°C 61°F16°C 93% CalmCalm 5.0 miles8.0 km 30.12 in1020 hPa -- --
00:16 00:16 Clear Clear 64°F18°C 61°F16°C 89% CalmCalm 7.0 miles11.3 km 30.12 in1020 hPa -- --